YO8KGT-13 Weather Reports


time (UTC)temp
C
wind
direction
speed
KPH
gust
KPH
rain 1hr
cm
rain 24hr
cm
rain mn
cm
humidity
%
barometer
mb
20260504080923 22 22 6.4 14.5 0.00 0.00 0.00 37 947.0
20260504080421 22 45 8.0 19.3 0.00 0.00 0.00 37 948.0
20260504050420 14 338 0.0 3.2 0.00 0.00 0.00 56 948.0
20260504045426 14 0 0.0 1.6 0.00 0.00 0.00 56 948.0
20260504042920 13 225 1.6 3.2 0.00 0.00 0.00 59 948.0
20260504042421 12 225 0.0 3.2 0.00 0.00 0.00 60 948.0
20260504041927 12 225 0.0 3.2 0.00 0.00 0.00 60 948.0
20260504041428 12 225 3.2 3.2 0.00 0.00 0.00 61 948.0
20260504040421 11 225 0.0 0.0 0.00 0.00 0.00 62 948.0
20260504035925 11 225 0.0 0.0 0.00 0.00 0.00 63 948.0
20260504034920 11 225 0.0 0.0 0.00 0.00 0.00 64 948.0
20260504033921 10 225 0.0 0.0 0.00 0.00 0.00 64 948.0
20260504033420 10 225 0.0 0.0 0.00 0.00 0.00 64 948.0
20260504032924 10 225 0.0 0.0 0.00 0.00 0.00 64 948.0
20260504032420 10 225 0.0 0.0 0.00 0.00 0.00 65 948.0
20260504031922 10 225 0.0 0.0 0.00 0.00 0.00 65 947.0
20260504031422 10 225 0.0 0.0 0.00 0.00 0.00 65 948.0
20260504030934 10 225 0.0 3.2 0.00 0.00 0.00 65 947.0
20260504025924 10 225 0.0 3.2 0.00 0.00 0.00 65 947.0
20260504025420 9 225 0.0 3.2 0.00 0.00 0.00 66 947.0
20260504024921 9 225 0.0 3.2 0.00 0.00 0.00 67 947.0
20260504024426 9 225 0.0 0.0 0.00 0.00 0.00 67 948.0
20260504023926 8 225 0.0 0.0 0.00 0.00 0.00 67 947.0
20260504023421 8 225 0.0 0.0 0.00 0.00 0.00 67 947.0
20260504022921 8 225 0.0 0.0 0.00 0.00 0.00 67 947.0
20260504022430 8 225 0.0 0.0 0.00 0.00 0.00 67 947.0
20260504021922 8 225 0.0 0.0 0.00 0.00 0.00 67 947.0
20260504020926 8 225 0.0 0.0 0.00 0.00 0.00 68 947.0
20260504020438 8 225 0.0 0.0 0.00 0.00 0.00 68 947.0
20260504015923 8 225 0.0 0.0 0.00 0.00 0.00 69 947.0
20260504015421 8 225 0.0 0.0 0.00 0.00 0.00 69 947.0
20260504014920 7 225 0.0 0.0 0.00 0.00 0.00 69 947.0
20260504013925 7 225 0.0 0.0 0.00 0.00 0.00 68 947.0
20260504013421 7 225 0.0 0.0 0.00 0.00 0.00 68 947.0
20260504012921 7 225 0.0 0.0 0.00 0.00 0.00 68 947.0
20260504012420 7 225 0.0 0.0 0.00 0.00 0.00 68 947.0
20260504011936 7 225 0.0 0.0 0.00 0.00 0.00 69 947.0
20260504011421 7 225 0.0 0.0 0.00 0.00 0.00 68 947.0
20260504005420 8 225 0.0 0.0 0.00 0.00 0.00 68 947.0
20260504002921 7 225 0.0 0.0 0.00 0.00 0.00 68 947.0
20260504002420 7 225 0.0 0.0 0.00 0.00 0.00 68 947.0
20260504001438 7 225 0.0 0.0 0.00 0.00 0.00 68 947.0
20260504000923 7 225 0.0 0.0 0.00 0.00 0.00 67 947.0
20260504000420 7 225 0.0 0.0 0.00 0.00 0.00 67 947.0
20260503234926 7 225 0.0 0.0 0.00 0.00 0.00 66 947.0
20260503234420 7 225 0.0 0.0 0.00 0.00 0.00 66 947.0
20260503232421 8 225 0.0 0.0 0.00 0.00 0.00 65 947.0
20260503231920 8 225 0.0 0.0 0.00 0.00 0.00 65 948.0
20260503231423 8 225 0.0 0.0 0.00 0.00 0.00 65 947.0
20260503230921 8 225 0.0 0.0 0.00 0.00 0.00 65 947.0
20260503225922 8 225 0.0 0.0 0.00 0.00 0.00 64 948.0
20260503224435 8 225 0.0 0.0 0.00 0.00 0.00 63 948.0
20260503223924 8 225 0.0 0.0 0.00 0.00 0.00 63 948.0
20260503222425 8 225 0.0 0.0 0.00 0.00 0.00 62 948.0
20260503221922 8 225 0.0 0.0 0.00 0.00 0.00 62 948.0
20260503221422 8 225 0.0 0.0 0.00 0.00 0.00 61 948.0
20260503213921 9 225 0.0 0.0 0.00 0.00 0.00 59 948.0
20260503213422 9 225 0.0 0.0 0.00 0.00 0.00 59 948.0
20260503210421 10 225 0.0 0.0 0.00 0.00 0.00 57 948.0
20260503205920 10 225 0.0 0.0 0.00 0.00 0.00 57 948.0
20260503205444 10 225 0.0 0.0 0.00 0.00 0.00 56 948.0
20260503204919 10 225 0.0 0.0 0.00 0.00 0.00 55 948.0
20260503204421 10 225 0.0 0.0 0.00 0.00 0.00 55 948.0
20260503203920 10 225 0.0 0.0 0.00 0.00 0.00 54 948.0
20260503203422 10 225 0.0 0.0 0.00 0.00 0.00 54 948.0
20260503202420 10 225 0.0 6.4 0.00 0.00 0.00 54 948.0
20260503201920 10 225 0.0 6.4 0.00 0.00 0.00 53 948.0
20260503201421 10 225 4.8 6.4 0.00 0.00 0.00 53 948.0
20260503200936 10 225 3.2 4.8 0.00 0.00 0.00 53 948.0
20260503200422 10 225 4.8 4.8 0.00 0.00 0.00 52 948.0
20260503195422 11 225 0.0 0.0 0.00 0.00 0.00 51 948.0
20260503194923 11 225 0.0 0.0 0.00 0.00 0.00 51 948.0
20260503194422 11 225 0.0 0.0 0.00 0.00 0.00 51 948.0
20260503193420 11 225 0.0 1.6 0.00 0.00 0.00 51 948.0
20260503191921 11 225 0.0 0.0 0.00 0.00 0.00 50 948.0
20260503190940 11 225 0.0 3.2 0.00 0.00 0.00 49 948.0
20260503190443 11 225 0.0 3.2 0.00 0.00 0.00 49 948.0
20260503185421 12 225 0.0 3.2 0.00 0.00 0.00 48 948.0
20260503183929 12 225 4.8 6.4 0.00 0.00 0.00 48 948.0
20260503181420 13 202 0.0 4.8 0.00 0.00 0.00 46 948.0
20260503180919 13 202 3.2 4.8 0.00 0.00 0.00 46 948.0
20260503180425 13 202 4.8 6.4 0.00 0.00 0.00 46 948.0
20260503175423 13 225 3.2 6.4 0.00 0.00 0.00 45 948.0
20260503174919 13 248 3.2 4.8 0.00 0.00 0.00 45 948.0
20260503173932 13 270 0.0 6.4 0.00 0.00 0.00 44 948.0
20260503173432 13 270 6.4 6.4 0.00 0.00 0.00 44 948.0
20260503172920 14 248 6.4 6.4 0.00 0.00 0.00 43 948.0
20260503172426 14 248 3.2 4.8 0.00 0.00 0.00 43 948.0
20260503170924 15 0 0.0 3.2 0.00 0.00 0.00 41 948.0
20260503170420 15 0 0.0 3.2 0.00 0.00 0.00 41 948.0
20260503150922 18 0 0.0 0.0 0.00 0.00 0.00 36 949.0
20260503150432 18 0 0.0 0.0 0.00 0.00 0.00 36 949.0
20260503130920 21 0 0.0 4.8 0.00 0.00 0.00 32 950.0
20260503130421 21 0 0.0 4.8 0.00 0.00 0.00 32 950.0
20260503110434 21 22 1.6 4.8 0.00 0.00 0.00 30 951.0